Location: McFarlands Corners
(41.4117°N, 81.3382°W)
Time: 10:20:37
(UTC+00:00)

Vanguard 1 Rocket - Pass Details

Date: 23 February 2026
Orbit: 653 x 4214 km, 34.3° (Epoch: 8 March)

Event Time Altitude Azimuth Distance (km) Brightness Sun altitude
Rises 02:07:22 0° 272° (W) 7,213 12.9 -34.0°
Reaches altitude 10° 02:16:11 10° 251° (WSW) 6,836 12.3 -35.6°
Maximum altitude 02:25:30 14° 227° (SW) 6,913 12.0 -37.2°
Drops below altitude 10° 02:35:41 10° 204° (SSW) 7,407 12.0 -39.0°
Sets 02:46:45 0° 183° (S) 8,228 12.1 -40.8°
